Location: Axberg
(46.9500°N, 15.7500°E)
Time: 09:06:13
(UTC+00:00)

Daily predictions for brighter satellites

Satellite Brightness Start Highest point End
(mag) Time Altitude Azimuth Time Altitude Azimuth Time Altitude Azimuth
STARLINK-1143 3.6 19:15:05 10° SW 19:19:14 82° SSE 19:23:23 10° ENE
Cosmos 676 Rocket 4.5 19:15:39 10° NNW 19:20:51 62° WSW 19:26:03 10° S
STARLINK-1124 3.8 19:17:13 10° WNW 19:21:20 68° SW 19:25:27 10° SE
Cosmos 1634 Rocket 4.2 19:15:15 10° N 19:21:37 87° W 19:27:57 10° S
Resurs 1-3 3.9 19:17:21 10° S 19:21:42 72° WSW 19:26:07 10° NNW
STARLINK-1128 4.4 19:19:27 10° WNW 19:23:30 50° NNE 19:27:32 10° E
STARLINK-1241 3.6 19:20:06 10° WSW 19:24:15 88° SE 19:28:24 10° ENE
STARLINK-1122 3.8 19:22:11 10° WNW 19:26:18 63° SW 19:30:23 10° SE
Cosmos 1300 Rocket 3.6 19:22:34 10° N 19:27:02 70° E 19:31:26 10° SSE
STARLINK-1113 4.3 19:24:27 10° WNW 19:28:30 52° NNE 19:32:34 10° E
STARLINK-1239 3.7 19:25:04 10° WSW 19:29:12 87° NW 19:33:22 10° ENE
NOSS 8 (E) 4.4 19:26:19 10° SSW 19:29:29 46° SE 19:32:25 10° NE
STARLINK-1126 3.9 19:27:14 10° WNW 19:31:19 58° SW 19:35:24 10° SE
Aureole 2 Rocket 3.2 19:29:28 10° SSE 19:32:07 26° ESE 19:34:41 10° NE
NOSS 2-2 (D) 4.5 19:29:51 10° SSE 19:32:30 20° ESE 19:35:19 10° ENE
STARLINK-1119 4.2 19:29:27 10° WNW 19:33:32 54° NNE 19:37:36 10° E
CENTAUR R/B 4.3 19:26:35 10° NW 19:33:32 35° NNE 19:41:14 10° E
Cosmos 1437 Rocket 3.2 19:30:26 10° SSE 19:34:00 41° E 19:37:38 10° NNE
Meteor 1-4 Rocket 3.9 19:30:47 10° SSW 19:34:04 41° WNW 19:37:24 10° N
STARLINK-1240 3.7 19:30:02 10° WSW 19:34:10 82° NNW 19:38:20 10° ENE
STARLINK-1082 4.0 19:32:10 10° WNW 19:36:13 54° SW 19:40:10 10° SE
Cosmos 304 Rocket 4.2 19:32:45 10° S 19:37:12 40° ESE 19:41:42 10° NE
Lacrosse 5 2.4 19:33:03 10° WNW 19:37:57 50° SW 19:42:48 10° SSE
STARLINK-1114 4.1 19:34:24 10° WNW 19:38:30 57° NNE 19:42:35 10° ESE
STARLINK-1203 3.8 19:34:37 10° WSW 19:38:50 78° NNW 19:43:03 10° ENE
STARLINK-1216 3.8 19:35:01 10° WSW 19:39:09 78° NNW 19:43:18 10° ENE
STARLINK-1100 4.1 19:37:09 10° WNW 19:41:10 50° SW 19:44:56 11° SE
ISS -2.7 19:38:08 10° WNW 19:41:13 34° SW 19:44:06 11° SSE
CZ-2C R/B 3.4 19:37:18 10° N 19:42:51 62° WNW 19:48:22 10° SSW
STARLINK-1130 (DARKSAT) 4.0 19:39:23 10° WNW 19:43:30 60° NNE 19:47:36 10° ESE
STARLINK-1237 3.9 19:40:00 10° WSW 19:44:08 73° NNW 19:48:17 10° ENE
STARLINK-1083 4.2 19:42:10 10° WNW 19:46:09 46° SW 19:49:44 12° SSE
Cosmos 1674 Rocket 3.8 19:43:14 10° S 19:47:29 53° E 19:51:47 10° NNE
Meteor 2-4 Rocket 4.0 19:42:21 10° SSW 19:47:40 67° WNW 19:53:02 10° N
STARLINK-1084 4.0 19:44:22 10° WNW 19:48:30 63° NNE 19:52:36 10° ESE
STARLINK-1202 4.0 19:45:00 10° WSW 19:49:08 69° NNW 19:53:17 10° ENE
NOSS 2-2 (E) 3.6 19:46:20 10° S 19:49:37 37° ESE 19:53:16 10° NE
Cosmos 1378 Rocket 4.0 19:46:16 10° SSE 19:50:26 43° E 19:54:36 10° NNE
EXPRESS MD2 3.4 19:47:54 10° SW 19:50:48 51° SE 19:56:04 10° ENE
STARLINK-1125 4.3 19:47:11 10° WNW 19:51:07 42° SW 19:54:31 13° SSE
STARLINK-1098 3.9 19:49:21 10° WNW 19:53:29 67° NNE 19:57:33 10° ESE
Cosmos 1833 Rocket 3.8 19:48:22 10° NW 19:53:34 39° WSW 19:58:44 10° S
Cosmos 2297 3.8 19:48:53 10° S 19:54:24 56° ESE 20:00:00 10° NE
Cosmos 1943 Rocket 3.2 19:50:27 10° SSE 19:54:58 26° ESE 19:59:31 10° NE
STARLINK-1109 4.5 19:52:11 10° WNW 19:56:04 39° SW 19:59:18 14° SSE
STARLINK-1123 3.8 19:54:18 10° WNW 19:58:27 71° NNE 20:02:19 12° ESE
STARLINK-1246 4.2 19:55:01 10° WSW 19:59:07 62° NNW 20:03:15 10° ENE
IGS 5A 3.4 19:55:29 12° SSE 19:59:22 76° ENE 20:03:32 10° N
Cosmos 2082 Rocket 2.7 19:54:45 10° NW 20:00:21 57° WSW 20:05:54 10° S
Cosmos 1452 Rocket 3.9 19:55:50 10° SSW 20:01:05 68° WNW 20:06:23 10° NNE
Cosmos 332 Rocket 3.9 19:56:26 10° SSW 20:01:20 82° WNW 20:06:17 10° NNE
BREEZE-M DEB 3.1 19:59:33 10° SSW 20:01:40 30° SE 20:05:38 10° ENE
Landsat 7 3.8 19:57:48 11° SSE 20:02:21 82° ENE 20:07:08 10° NNW
Intercosmos 24 4.4 19:59:24 10° NNW 20:02:52 52° W 20:06:37 10° S
STARLINK-1097 3.7 19:59:19 10° WNW 20:03:28 75° NNE 20:07:07 13° ESE
STARLINK-1224 4.3 20:00:01 10° WSW 20:04:06 59° NNW 20:08:13 10° ENE
Meteor 1-23 Rocket 4.3 20:00:04 10° S 20:05:42 65° E 20:11:17 10° NNE
Cosmos 1461 3.0 20:03:46 10° SW 20:07:55 86° NW 20:12:19 10° NE
STARLINK-1099 3.7 20:04:17 10° WNW 20:08:26 80° NNE 20:11:54 15° ESE
STARLINK-1225 4.4 20:05:02 10° W 20:09:07 56° NNW 20:13:12 10° ENE
Cosmos 1975 Rocket 4.3 20:07:29 16° SE 20:09:59 25° E 20:13:38 10° NNE
Cosmos 2369 Rocket 3.3 20:07:22 14° SSE 20:10:52 26° ESE 20:15:27 10° NE
SAR-Lupe-2 3.5 20:07:31 10° NNE 20:11:08 85° ESE 20:14:44 10° SSW
STARLINK-1104 3.6 20:09:15 10° WNW 20:13:25 84° NNE 20:16:40 16° ESE
STARLINK-1230 4.5 20:10:02 10° W 20:14:06 53° NNW 20:18:11 10° ENE
NOSS 2-2 (C) 3.2 20:10:42 10° SSW 20:14:09 52° SE 20:17:58 10° NE
CZ-4B DEB 4.3 20:11:56 18° SSE 20:14:17 75° ENE 20:17:38 10° N
ATLAS 2AS CENTAUR R/B 4.0 20:13:12 14° SSE 20:18:00 25° ESE 20:24:07 10° ENE
STARLINK-1144 3.6 20:14:14 10° WNW 20:18:24 89° NNE 20:21:28 18° ESE
SPOT 5 3.3 20:14:18 16° SSE 20:18:25 63° ENE 20:23:44 10° N
NOSS 3-2 (A) 4.2 20:13:19 10° NW 20:20:43 70° NE 20:27:48 15° SE
STARLINK-1103 3.6 20:19:13 10° WNW 20:23:22 85° SSW 20:26:13 20° ESE
ERS-1 Rocket 3.0 20:19:40 17° SSE 20:23:38 80° ENE 20:28:42 10° NNW
Okean 2 4.0 20:25:56 21° SSE 20:28:16 41° E 20:32:11 10° NNE
STARLINK-1101 3.6 20:24:11 10° WNW 20:28:20 80° SSW 20:31:00 21° SE
Cosmos 1066 Rocket 4.1 20:23:25 10° SSW 20:28:48 85° W 20:34:12 10° N
USA 245 4.0 20:27:55 13° SSW 20:30:10 30° WSW 20:32:32 10° NW
USA 238 DEB 3.9 20:25:25 10° NW 20:32:37 77° NE 20:38:26 18° SE
USA 238 3.9 20:25:31 10° NW 20:32:44 76° NE 20:38:32 18° SE
STARLINK-1102 3.6 20:29:11 10° WNW 20:33:20 75° SSW 20:35:47 23° SE
Resurs 01 Rocket 3.9 20:30:36 10° SW 20:33:55 20° W 20:37:16 10° NW
Okean 1 Rocket 3.4 20:30:02 10° NNW 20:34:29 65° W 20:37:54 16° S
Cosmos 2278 Rocket 4.4 20:29:44 10° WSW 20:34:34 28° NW 20:39:26 10° N
Cosmos 1805 3.2 20:30:51 10° N 20:34:47 81° E 20:37:07 23° SSE
Cosmos 1470 4.3 20:31:46 10° NNE 20:34:51 22° ENE 20:36:31 17° ESE
Nadezhda 4 Rocket 4.0 20:29:04 10° S 20:35:12 85° W 20:41:22 10° N
STARLINK-1235 4.5 20:34:33 10° NW 20:37:33 34° NNE 20:40:34 10° E
STARLINK-1111 3.6 20:34:10 10° WNW 20:38:17 70° SW 20:40:34 25° SE
Cosmos 1455 Rocket 3.6 20:35:58 10° N 20:40:08 43° ENE 20:42:18 24° SE
STARLINK-1073 3.7 20:39:09 10° WNW 20:43:16 65° SW 20:45:21 27° SE
SL-8 R/B 3.8 20:38:43 10° WNW 20:43:27 61° SSW 20:46:16 24° SE
Terra 1.8 20:44:22 23° SSE 20:47:19 82° ENE 20:52:07 10° NNW
Cosmos 1110 Rocket 4.3 20:42:52 10° SSW 20:48:01 66° WNW 20:53:12 10° NNE
SL-4 R/B 2.9 20:43:48 10° SSW 20:48:10 37° SE 20:52:37 10° ENE
STARLINK-1121 3.7 20:44:08 10° WNW 20:48:14 60° SW 20:50:08 29° SSE
ATLAS 3B CENTAUR R/B 4.1 20:39:53 10° SW 20:48:26 21° SSW 20:50:57 18° S
SPOT 1/Viking Rocket 4.3 20:45:17 14° S 20:49:32 46° W 20:54:31 10° NNW
Cosmos 1842 3.4 20:48:52 29° SSE 20:50:34 53° E 20:54:23 10° NNE
CARTOSAT-1 3.9 20:47:49 20° S 20:50:39 59° W 20:54:57 10° NNW
Abrixas rocket 3.0 20:49:09 10° W 20:51:46 29° SSW 20:51:50 29° SSW
STARLINK-1106 3.8 20:49:09 10° WNW 20:53:13 55° SW 20:54:57 31° SSE
STARLINK-1234 4.1 20:52:17 10° NW 20:55:27 42° NNE 20:57:44 16° E
STARLINK-1112 3.9 20:54:07 10° WNW 20:58:09 51° SW 20:59:42 32° SSE
STARLINK-1209 3.9 20:58:14 10° NW 21:01:27 47° NNE 21:03:26 20° E
STARLINK-1128 4.0 20:59:07 10° WNW 21:03:06 47° SW 21:04:28 33° SSE
Cosmos 1733 3.5 21:04:05 10° NNW 21:07:51 61° W 21:09:32 30° SSW
STARLINK-1113 4.1 21:04:07 10° WNW 21:08:04 43° SW 21:09:16 34° S
Meteor 1-21 4.2 21:07:51 26° S 21:11:05 66° E 21:16:39 10° NNE
COSMOS 2455 3.8 21:09:45 24° SE 21:11:18 27° ESE 21:16:16 10° NE
Cosmos 1378 4.5 21:09:41 13° SW 21:12:39 36° WNW 21:16:07 10° N
STARLINK-1119 4.2 21:09:09 10° WNW 21:13:03 40° SW 21:14:04 34° S
USA 215 4.1 21:08:02 10° E 21:14:18 50° NNE 21:20:33 10° NW
Cosmos 1302 Rocket 4.1 21:10:14 14° SSW 21:14:52 80° WNW 21:20:13 10° NNE
JB-3 4.4 21:10:53 10° NNE 21:15:03 69° ESE 21:16:37 36° S
Cosmos 1271 Rocket 3.2 21:14:22 38° SE 21:15:17 45° E 21:19:03 10° NNE
Cosmos 1486 Rocket 4.0 21:10:16 10° NNW 21:15:37 87° ENE 21:18:13 31° SSE
Cosmos 1833 4.5 21:10:29 10° NNW 21:16:05 60° ENE 21:19:13 26° SE
Cosmos 1242 Rocket 2.5 21:15:26 43° SSE 21:16:28 69° E 21:20:09 10° NNE
Cosmos 1544 Rocket 3.5 21:12:36 10° N 21:16:58 75° E 21:18:39 36° SSE
MTI 4.0 21:14:47 10° N 21:17:54 62° WNW 21:18:58 36° SW
STARLINK-1114 4.3 21:14:09 10° WNW 21:17:59 37° SW 21:18:49 33° SSW
STARLINK-60 2.8 21:20:10 64° SSE 21:20:11 64° SSE 21:23:20 10° ENE
Cosmos 1092 Rocket 4.3 21:15:30 14° SSW 21:20:48 63° WNW 21:26:55 10° N
STARLINK-1130 (DARKSAT) 4.4 21:19:10 10° WNW 21:22:57 34° SW 21:23:37 32° SSW
CENTAUR R/B 3.2 21:17:13 10° NW 21:25:17 89° NE 21:31:07 24° SE
Cosmos 1707 3.1 21:24:35 40° SE 21:25:22 47° E 21:29:07 10° NNE
ATLAS 3B R/B 3.3 21:21:49 10° NW 21:28:26 53° NE 21:33:56 16° ESE
SL-27 R/B 3.0 21:25:11 10° NNW 21:28:40 48° WSW 21:29:28 39° SSW
NOSS 3-2 (C) 4.1 21:22:55 10° NW 21:30:28 80° SW 21:35:37 27° SSE
Cosmos 1726 3.0 21:28:37 10° N 21:32:05 36° ENE 21:32:50 32° ESE
ALOS 2 3.9 21:30:24 22° ESE 21:32:11 29° ENE 21:35:59 10° N
Cosmos 1867 3.7 21:29:50 10° NW 21:35:19 71° NE 21:38:06 29° SE
COSMOS 2487 3.5 21:33:07 10° N 21:36:20 34° ENE 21:37:03 31° E
Cosmos 1943 Rocket 2.9 21:32:56 10° SW 21:38:22 53° WNW 21:43:52 10° NNE
Cosmos 1992 Rocket 3.9 21:36:08 33° S 21:38:24 68° ESE 21:43:35 10° NNE
NOSS 3-4 (A) 3.4 21:36:31 26° SSW 21:39:54 61° ESE 21:46:06 10° NE
NOSS 3-4 (C) 3.4 21:36:40 26° SSW 21:40:00 60° ESE 21:46:13 10° NE
SeaSat 1 2.6 21:38:03 10° NE 21:42:55 56° ESE 21:44:34 37° S
EO 1 Del DPAF 3.1 21:39:57 10° NNE 21:43:45 74° ESE 21:44:28 55° S
Cosmos 1975 Rocket 4.5 21:44:36 15° SW 21:47:42 33° WNW 21:51:43 10° N
STARLINK-1212 2.9 21:47:33 10° WNW 21:50:40 73° NNE 21:50:47 72° NE
STARLINK-1105 2.9 21:48:02 10° WNW 21:51:09 74° NNE 21:51:13 73° NE
Cosmos 292 Rocket 4.2 21:48:20 21° SW 21:51:29 60° WNW 21:56:19 10° NNE
Meteor 2-10 3.9 21:46:48 10° N 21:51:53 82° ENE 21:53:43 40° SSE
STARLINK-1247 2.9 21:48:54 10° WNW 21:52:02 75° NNE 21:52:06 74° NE
STARLINK-1227 2.9 21:49:24 10° WNW 21:52:30 76° NNE 21:52:32 76° NE
BREEZE-M DEB (TANK) 3.4 21:40:54 10° WSW 21:52:39 76° NNW 21:56:03 10° ENE
STARLINK-1226 2.9 21:50:15 10° WNW 21:53:23 77° NNE 21:53:23 77° NNE
RESURS DK-1 3.9 21:53:56 22° E 21:53:56 22° E 21:56:45 10° NE
BREEZE-M DEB (TANK) 3.1 21:49:56 10° WNW 21:53:33 72° NNE 21:57:51 10° E
STARLINK-1215 2.9 21:51:09 10° WNW 21:54:16 78° NNE 21:54:16 78° NNE
Cosmos 2369 Rocket 2.8 21:49:04 10° SW 21:54:32 55° WNW 22:00:06 10° NNE
S3M 3.9 21:49:02 10° N 21:55:14 88° W 21:58:11 34° S
Cosmos 2227 Rocket 4.5 21:51:24 10° N 21:55:17 18° NE 21:59:09 10° E
STARLINK-1217 2.9 21:52:58 10° WNW 21:56:00 79° N 21:56:00 79° N
STARLINK-1229 2.9 21:53:52 10° WNW 21:56:53 79° NNW 21:56:53 79° NNW
STARLINK-1270 2.9 21:54:46 10° WNW 21:57:45 78° NNW 21:57:45 78° NNW
STARLINK-1189 2.9 21:56:33 10° WNW 21:59:29 75° NW 21:59:29 75° NW
ATLAS CENTAUR R/B 1.4 21:59:35 51° S 22:00:26 66° SE 22:04:34 10° NE
STARLINK-1188 2.9 21:57:28 10° WNW 22:00:22 74° NW 22:00:22 74° NW
Cosmos 1626 4.4 22:01:28 13° E 22:01:36 13° E 22:03:27 10° NE
STARLINK-1187 3.1 21:58:34 10° WNW 22:01:14 62° WNW 22:01:14 62° WNW
Cosmos 1340 Rocket 2.8 21:57:37 10° N 22:01:43 77° E 22:02:31 55° SSE
STARLINK-1197 4.4 21:58:22 10° WNW 22:02:25 50° NNE 22:05:46 14° E
STARLINK-1191 3.0 21:59:55 10° WNW 22:02:39 66° WNW 22:02:39 66° WNW
Aureole 3 3.2 22:00:24 10° N 22:03:24 48° ENE 22:03:24 48° ENE
STARLINK-1221 3.1 22:00:52 10° WNW 22:03:34 65° WNW 22:03:34 65° WNW
Cosmos 1025 Rocket 3.3 22:02:58 37° SW 22:04:26 61° WNW 22:08:43 10° N
Thor Agena Rocket 3.7 21:59:14 10° N 22:04:31 72° WNW 22:07:12 30° SSW
STARLINK-1222 3.1 22:01:43 10° WNW 22:04:23 63° WNW 22:04:23 63° WNW
STARLINK-1214 3.2 22:02:37 10° WNW 22:05:15 61° WNW 22:05:15 61° WNW
Meteor 2-19 Rocket 4.4 22:03:37 35° S 22:06:21 75° E 22:12:27 10° NNE
Cosmos 1908 3.9 22:03:07 10° N 22:06:47 42° ENE 22:07:21 38° ESE
STARLINK-1198 4.3 22:03:21 10° WNW 22:07:25 53° NNE 22:10:32 16° E
Cosmos 1656 Rocket 3.7 22:04:50 26° SSW 22:08:04 80° WNW 22:13:40 10° NNE
ATLAS 2AS CENTAUR R/B 3.0 22:00:30 11° SW 22:08:11 89° NW 22:16:10 10° NE
Cosmos 1553 Rocket 4.4 22:02:33 10° NNW 22:08:38 53° W 22:11:43 28° SSW
BREEZE M DEB (TANK) 3.0 22:06:23 10° W 22:08:33 38° NW 22:08:33 38° NW
Cosmos 1953 2.3 22:06:01 10° NNW 22:10:00 72° W 22:10:41 56° SSW
BREEZE-M DEB (TANK) 3.6 22:00:31 10° WNW 22:10:52 55° SW 22:11:56 44° S
Cosmos 1470 4.1 22:07:32 10° NNW 22:10:57 29° W 22:11:51 26° WSW
STARLINK-1228 3.4 22:08:06 10° WNW 22:11:08 55° WSW 22:11:08 55° WSW
STARLINK-1199 4.2 22:08:21 10° WNW 22:12:26 55° NNE 22:15:20 18° E
Cosmos 2292 Rocket 2.9 22:13:24 73° SE 22:13:38 78° E 22:16:51 10° NNE
STARLINK-1235 3.8 22:10:49 10° WNW 22:13:12 42° W 22:13:12 42° W
Cosmos 968 Rocket 4.4 22:11:14 10° NW 22:15:56 37° WSW 22:17:31 29° SW
FALCON 9 R/B 4.4 22:19:35 16° ESE 22:19:35 16° ESE 22:22:38 10° ESE
STARLINK-1210 4.1 22:13:19 10° WNW 22:17:25 58° NNE 22:20:06 20° E
KORONAS-FOTON 4.1 22:17:21 48° ESE 22:17:35 49° E 22:21:20 10° NNE
Cosmos 1655 Rocket 4.1 22:15:01 30° SSW 22:18:18 69° WNW 22:24:34 10° N
SL-4 R/B 3.2 22:20:18 22° NNW 22:20:18 22° NNW 22:21:15 10° NNW
Cosmos 1777 Rocket 4.3 22:15:59 10° NNW 22:21:11 62° ENE 22:23:18 35° SE
STARLINK-1219 4.0 22:18:17 10° WNW 22:22:24 61° NNE 22:24:52 23° E
ATLAS 5 CENTAUR R/B 1.6 22:21:46 35° WSW 22:22:57 64° NW 22:25:10 10° NE
Terra 4.2 22:23:37 10° WSW 22:25:41 13° W 22:27:45 10° WNW
Cosmos 1892 Rocket 4.3 22:25:06 35° ESE 22:25:49 38° E 22:29:52 10° NNE
STARLINK-52 3.4 22:26:27 56° NE 22:26:27 56° NE 22:29:05 10° ENE
STARLINK-1211 4.0 22:23:17 10° WNW 22:27:24 64° NNE 22:29:40 25° E
SL-4 R/B 2.6 22:22:56 10° WSW 22:27:45 72° NNW 22:32:35 10° ENE
Cosmos 2228 3.0 22:23:32 10° N 22:27:47 68° E 22:28:36 53° SE
Cosmos 1726 Rocket 3.8 22:24:16 10° N 22:28:33 57° ENE 22:29:31 45° SE
Meteor 2-15 4.4 22:22:26 10° NNW 22:28:36 80° W 22:31:06 38° S
In-Cosmos 22 4.2 22:30:05 37° SSW 22:32:11 70° WNW 22:37:28 10° N
Cosmos 921 Rocket 3.9 22:31:52 32° ESE 22:32:11 33° E 22:36:05 10° NE
STARLINK-1245 3.9 22:28:15 10° WNW 22:32:23 68° NNE 22:34:26 28° ESE
Cosmos 1300 4.1 22:29:25 10° NNE 22:32:45 28° ENE 22:33:33 26° E
Meteor 1-24 Rocket 4.3 22:33:05 33° SE 22:34:42 42° E 22:39:49 10° NNE
Cosmos 2266 Rocket 4.1 22:33:43 33° SSW 22:36:34 68° W 22:42:36 10° N
CZ-4C R/B 4.1 22:36:20 12° ESE 22:36:41 12° ESE 22:38:43 10° E
STARLINK-1233 3.8 22:33:12 10° WNW 22:37:21 72° NNE 22:39:12 32° ESE
STARLINK-1204 3.7 22:38:11 10° WNW 22:42:20 76° NNE 22:43:59 35° ESE
SJ 16-02 3.4 22:40:46 10° N 22:44:14 22° ENE 22:47:11 12° ESE
STARLINK-1374 4.4 22:45:33 34° E 22:45:33 34° E 22:48:02 10° ENE
STARLINK-1238 3.6 22:43:11 10° WNW 22:47:22 81° NNE 22:48:48 40° ESE
Meteor 2-15 Rocket 4.5 22:42:22 10° NNW 22:48:30 71° W 22:50:55 38° SSW
Cosmos 1674 2.8 22:48:20 58° WSW 22:48:44 62° W 22:52:30 10° N
Helios 1B rocket 3.6 22:46:02 10° NE 22:49:42 30° E 22:50:09 29° ESE
STARLINK-1377 4.1 22:52:00 41° E 22:52:00 41° E 22:54:49 10° ENE
STARLINK-1201 3.5 22:48:10 10° WNW 22:52:19 86° NNE 22:53:34 45° ESE
STARLINK-1353 3.9 22:55:17 45° E 22:55:17 45° E 22:58:13 10° ENE
COSMOS 2455 3.2 22:52:50 21° SW 22:56:50 60° NW 23:02:50 10° NNE
USA 215 3.2 22:52:57 24° SE 22:57:07 75° SW 23:03:42 10° NW
STARLINK-1206 3.5 22:53:09 10° WNW 22:57:19 89° SW 22:58:21 50° ESE
STARLINK-1375 3.7 22:58:33 50° E 22:58:33 50° E 23:01:39 10° ENE
Cosmos 2219 3.7 22:53:26 10° NNW 22:59:02 57° ENE 23:02:18 25° SE
STARLINK-1352 3.8 23:01:56 48° E 23:01:56 48° E 23:04:47 10° ENE
STARLINK-1350 3.6 23:01:49 55° ESE 23:01:49 55° ESE 23:05:03 10° ENE
Helios 1A 3.0 23:01:35 55° SW 23:02:11 62° WSW 23:06:21 10° NNW
STARLINK-1205 3.5 22:58:07 10° WNW 23:02:17 84° SSW 23:03:07 56° SE
Cosmos 2297 Rocket 2.9 22:57:46 10° NNW 23:03:19 51° ENE 23:07:00 20° SE
Lacrosse 4 Rocket 3.8 23:03:27 10° N 23:06:51 22° NE 23:10:10 10° E
Cosmos 1726 4.2 23:04:33 10° NW 23:07:00 17° W 23:07:20 17° W
PSLV R/B 4.1 23:02:41 10° NNE 23:07:03 47° E 23:07:54 41° SE
STARLINK-1218 3.4 23:03:07 10° WNW 23:07:16 79° SSW 23:07:55 61° SE
STARLINK-1368 3.3 23:08:27 67° ESE 23:08:27 67° ESE 23:12:00 10° ENE
ALOS 2 3.7 23:07:47 30° WSW 23:08:27 31° W 23:12:23 10° NNW
Timation 2 Rocket 4.0 23:04:26 10° NNW 23:10:41 65° WSW 23:12:55 39° S
Cosmos 2058 Rocket 3.0 23:06:35 10° N 23:11:03 81° W 23:11:58 56° S
STARLINK-1369 3.2 23:11:47 74° SE 23:11:47 74° SE 23:15:28 10° ENE
STARLINK-1254 3.4 23:08:06 10° WNW 23:12:15 73° SSW 23:12:41 65° SSE
Cosmos 1626 Rocket 4.3 23:11:50 36° ESE 23:12:45 41° E 23:16:51 10° NNE
Meteor 1-29 4.2 23:10:54 10° NE 23:13:48 29° E 23:13:48 29° E
STARLINK-1372 3.2 23:15:07 78° SSE 23:15:10 79° SSE 23:18:58 10° ENE
CENTAUR R/B 4.3 23:08:49 10° WNW 23:15:27 27° WSW 23:18:17 23° SW
Meteor 2-5 Rocket 3.8 23:14:12 38° SSW 23:16:21 68° WNW 23:21:59 10° N
STARLINK-1231 3.5 23:13:04 10° WNW 23:17:12 68° SW 23:17:27 66° S
STARLINK-1378 3.2 23:18:28 78° SSW 23:18:40 83° SSE 23:22:28 10° ENE
ATLAS 3B R/B 3.2 23:12:43 10° NW 23:19:02 42° WSW 23:21:09 33° SSW
SL-14 R/B 3.1 23:19:11 68° SW 23:19:36 80° W 23:23:28 10° N
SeaSat 1 4.2 23:16:02 10° N 23:20:09 27° NW 23:24:16 10° WSW
FALCON 9 DEB 3.9 23:20:07 32° W 23:21:21 52° NNW 23:24:45 10° NE
STARLINK-1379 3.2 23:21:52 74° SW 23:22:10 87° SSE 23:25:59 10° ENE
STARLINK-1232 3.5 23:18:05 10° WNW 23:22:11 63° SW 23:22:15 63° SSW
STARLINK-1329 3.2 23:23:14 71° SW 23:23:38 88° SE 23:27:27 10° ENE
STARLINK-1224 4.4 23:20:19 10° WNW 23:24:24 52° NNE 23:28:26 10° E
SL-16 R/B 4.0 23:20:10 10° ESE 23:25:26 31° ENE 23:30:45 10° N
STARLINK-1208 3.6 23:23:03 10° WNW 23:27:00 58° SW 23:27:00 58° SW
STARLINK-1362 3.3 23:26:40 65° WSW 23:27:12 88° NNW 23:31:02 10° ENE
ATLAS CENTAUR R/B 1.7 23:26:52 10° NW 23:29:13 61° NE 23:33:57 10° ESE
STARLINK-1225 4.3 23:25:19 10° WNW 23:29:24 54° NNE 23:33:28 10° E
Cosmos 1656 4.1 23:27:53 37° SSE 23:29:44 51° ESE 23:35:10 10° NE
STARLINK-1373 3.3 23:30:05 58° WSW 23:30:46 84° NNW 23:34:37 10° ENE
RESURS DK-1 3.4 23:29:48 29° WSW 23:31:19 40° NW 23:35:16 10° NNE
STARLINK-1365 3.4 23:31:12 53° WSW 23:32:01 81° NNW 23:35:53 10° ENE
STARLINK-1271 3.8 23:28:04 10° WNW 23:31:48 52° SW 23:31:48 52° SW
STARLINK-1230 4.2 23:30:17 10° WNW 23:34:23 57° NNE 23:38:28 10° ESE
STARLINK-1390 3.4 23:33:34 52° WSW 23:34:24 80° NNW 23:38:14 10° ENE
Cosmos 1697 Rocket 3.8 23:32:47 25° SE 23:34:46 32° ESE 23:39:44 10° NE
Cosmos 2084 4.1 23:33:37 29° WSW 23:35:38 53° NW 23:40:02 10° NE
Cosmos 1626 2.6 23:36:00 43° W 23:36:26 46° WNW 23:40:03 10° N
STARLINK-1154 3.9 23:33:04 10° WNW 23:36:35 47° WSW 23:36:35 47° WSW
Cosmos 1812 Rocket 4.0 23:32:54 10° N 23:37:19 57° ENE 23:38:55 35° SE
BREEZE-M R/B 3.2 23:31:44 14° WSW 23:37:30 76° SSE 23:41:01 10° ENE
Okean 1-7 Rocket 4.2 23:37:39 37° WSW 23:38:54 47° WNW 23:43:17 10° N
STARLINK-1243 4.1 23:35:17 10° WNW 23:39:23 60° NNE 23:43:29 10° ESE
ATLAS CENTAUR R/B 3.6 23:36:22 10° W 23:39:41 21° NW 23:42:51 10° NNE
Cosmos 990 Rocket 4.3 23:34:52 10° NNW 23:40:07 63° ENE 23:43:10 25° SE
Cosmos 2227 Rocket 2.2 23:34:33 10° NNW 23:40:17 81° ENE 23:43:30 27° SSE
STARLINK-1197 4.1 23:38:02 10° WNW 23:41:21 42° WSW 23:41:21 42° WSW
CZ-4 R/B 3.8 23:37:33 10° N 23:42:19 72° WNW 23:43:50 42° SW
STARLINK-1236 4.0 23:40:14 10° WNW 23:44:22 63° NNE 23:48:29 10° ESE
STARLINK-1198 4.3 23:43:02 10° WNW 23:46:07 37° WSW 23:46:07 37° WSW
Cosmos 1709 Rocket 4.5 23:44:10 27° SSE 23:47:20 51° E 23:53:16 10° NNE
Cosmos 1602 Rocket 3.5 23:47:23 48° S 23:48:29 75° E 23:52:50 10° NNE
SL-08 ROCKET BODY 4.3 23:46:46 36° S 23:49:17 90° ESE 23:55:10 10° N
STARLINK-1269 3.8 23:50:12 10° WNW 23:54:21 70° NNE 23:58:30 10° ESE
